<?xml version="1.0"?>
<gpx xmlns="http://www.topografix.com/GPX/1/1" xmlns:xsi="http://www.w3.org/2001/XMLSchema-instance" version="1.1" creator="GPX RubyGem 1.0.0 -- http://dougfales.github.io/gpx/" xsi:schemaLocation="http://www.topografix.com/GPX/1/1 http://www.topografix.com/GPX/1/1/gpx.xsd">
  <metadata>
    <name/>
    <time>2026-05-07T18:07:39+00:00</time>
    <bound minlat="90.0" minlon="180.0" maxlat="-90.0" maxlon="-180.0"/>
  </metadata>
  <trk>
    <name/>
    <trkseg>
      <trkpt lat="46.152331" lon="5.613518">
        <time>1970-01-01T00:00:00+00:00</time>
        <ele>596.0</ele>
      </trkpt>
      <trkpt lat="46.152144" lon="5.613554">
        <time>1970-01-01T00:00:00+00:00</time>
        <ele>597.0</ele>
      </trkpt>
      <trkpt lat="46.152326" lon="5.613873">
        <time>1970-01-01T00:00:00+00:00</time>
        <ele>603.0</ele>
      </trkpt>
      <trkpt lat="46.152371" lon="5.614086">
        <time>1970-01-01T00:00:00+00:00</time>
        <ele>606.0</ele>
      </trkpt>
      <trkpt lat="46.152385" lon="5.614596">
        <time>1970-01-01T00:00:00+00:00</time>
        <ele>615.0</ele>
      </trkpt>
      <trkpt lat="46.152544" lon="5.615428">
        <time>1970-01-01T00:00:00+00:00</time>
        <ele>616.0</ele>
      </trkpt>
      <trkpt lat="46.152703" lon="5.615746">
        <time>1970-01-01T00:00:00+00:00</time>
        <ele>620.0</ele>
      </trkpt>
      <trkpt lat="46.153018" lon="5.616244">
        <time>1970-01-01T00:00:00+00:00</time>
        <ele>622.0</ele>
      </trkpt>
      <trkpt lat="46.153215" lon="5.616439">
        <time>1970-01-01T00:00:00+00:00</time>
        <ele>627.0</ele>
      </trkpt>
      <trkpt lat="46.15335" lon="5.616496">
        <time>1970-01-01T00:00:00+00:00</time>
        <ele>629.0</ele>
      </trkpt>
      <trkpt lat="46.153491" lon="5.616683">
        <time>1970-01-01T00:00:00+00:00</time>
        <ele>633.0</ele>
      </trkpt>
      <trkpt lat="46.153667" lon="5.617069">
        <time>1970-01-01T00:00:00+00:00</time>
        <ele>643.0</ele>
      </trkpt>
      <trkpt lat="46.153776" lon="5.617149">
        <time>1970-01-01T00:00:00+00:00</time>
        <ele>643.0</ele>
      </trkpt>
      <trkpt lat="46.153985" lon="5.616974">
        <time>1970-01-01T00:00:00+00:00</time>
        <ele>641.0</ele>
      </trkpt>
      <trkpt lat="46.153854" lon="5.617637">
        <time>1970-01-01T00:00:00+00:00</time>
        <ele>657.0</ele>
      </trkpt>
      <trkpt lat="46.154016" lon="5.61853">
        <time>1970-01-01T00:00:00+00:00</time>
        <ele>682.0</ele>
      </trkpt>
      <trkpt lat="46.154081" lon="5.619031">
        <time>1970-01-01T00:00:00+00:00</time>
        <ele>685.0</ele>
      </trkpt>
      <trkpt lat="46.15359" lon="5.619367">
        <time>1970-01-01T00:00:00+00:00</time>
        <ele>683.0</ele>
      </trkpt>
      <trkpt lat="46.153416" lon="5.619518">
        <time>1970-01-01T00:00:00+00:00</time>
        <ele>690.0</ele>
      </trkpt>
      <trkpt lat="46.153139" lon="5.619401">
        <time>1970-01-01T00:00:00+00:00</time>
        <ele>685.0</ele>
      </trkpt>
      <trkpt lat="46.153191" lon="5.620211">
        <time>1970-01-01T00:00:00+00:00</time>
        <ele>702.0</ele>
      </trkpt>
      <trkpt lat="46.153361" lon="5.620887">
        <time>1970-01-01T00:00:00+00:00</time>
        <ele>720.0</ele>
      </trkpt>
      <trkpt lat="46.152975" lon="5.621581">
        <time>1970-01-01T00:00:00+00:00</time>
        <ele>730.0</ele>
      </trkpt>
      <trkpt lat="46.152762" lon="5.621999">
        <time>1970-01-01T00:00:00+00:00</time>
        <ele>736.0</ele>
      </trkpt>
      <trkpt lat="46.152691" lon="5.622418">
        <time>1970-01-01T00:00:00+00:00</time>
        <ele>748.0</ele>
      </trkpt>
      <trkpt lat="46.152502" lon="5.622562">
        <time>1970-01-01T00:00:00+00:00</time>
        <ele>754.0</ele>
      </trkpt>
      <trkpt lat="46.152391" lon="5.622434">
        <time>1970-01-01T00:00:00+00:00</time>
        <ele>754.0</ele>
      </trkpt>
      <trkpt lat="46.151899" lon="5.62227">
        <time>1970-01-01T00:00:00+00:00</time>
        <ele>759.0</ele>
      </trkpt>
      <trkpt lat="46.151775" lon="5.622192">
        <time>1970-01-01T00:00:00+00:00</time>
        <ele>760.0</ele>
      </trkpt>
      <trkpt lat="46.151423" lon="5.621825">
        <time>1970-01-01T00:00:00+00:00</time>
        <ele>766.0</ele>
      </trkpt>
      <trkpt lat="46.150835" lon="5.621315">
        <time>1970-01-01T00:00:00+00:00</time>
        <ele>774.0</ele>
      </trkpt>
      <trkpt lat="46.150715" lon="5.62124">
        <time>1970-01-01T00:00:00+00:00</time>
        <ele>775.0</ele>
      </trkpt>
      <trkpt lat="46.150541" lon="5.621234">
        <time>1970-01-01T00:00:00+00:00</time>
        <ele>778.0</ele>
      </trkpt>
      <trkpt lat="46.150384" lon="5.621154">
        <time>1970-01-01T00:00:00+00:00</time>
        <ele>780.0</ele>
      </trkpt>
      <trkpt lat="46.149671" lon="5.620515">
        <time>1970-01-01T00:00:00+00:00</time>
        <ele>787.0</ele>
      </trkpt>
      <trkpt lat="46.149536" lon="5.620446">
        <time>1970-01-01T00:00:00+00:00</time>
        <ele>787.0</ele>
      </trkpt>
      <trkpt lat="46.149262" lon="5.620601">
        <time>1970-01-01T00:00:00+00:00</time>
        <ele>793.0</ele>
      </trkpt>
      <trkpt lat="46.149127" lon="5.620623">
        <time>1970-01-01T00:00:00+00:00</time>
        <ele>795.0</ele>
      </trkpt>
      <trkpt lat="46.148729" lon="5.620569">
        <time>1970-01-01T00:00:00+00:00</time>
        <ele>799.0</ele>
      </trkpt>
      <trkpt lat="46.148612" lon="5.620639">
        <time>1970-01-01T00:00:00+00:00</time>
        <ele>801.0</ele>
      </trkpt>
      <trkpt lat="46.148604" lon="5.620718">
        <time>1970-01-01T00:00:00+00:00</time>
        <ele>803.0</ele>
      </trkpt>
      <trkpt lat="46.148831" lon="5.620877">
        <time>1970-01-01T00:00:00+00:00</time>
        <ele>807.0</ele>
      </trkpt>
      <trkpt lat="46.149081" lon="5.621129">
        <time>1970-01-01T00:00:00+00:00</time>
        <ele>811.0</ele>
      </trkpt>
      <trkpt lat="46.149201" lon="5.621175">
        <time>1970-01-01T00:00:00+00:00</time>
        <ele>811.0</ele>
      </trkpt>
      <trkpt lat="46.149361" lon="5.621323">
        <time>1970-01-01T00:00:00+00:00</time>
        <ele>814.0</ele>
      </trkpt>
      <trkpt lat="46.149758" lon="5.622116">
        <time>1970-01-01T00:00:00+00:00</time>
        <ele>821.0</ele>
      </trkpt>
      <trkpt lat="46.149929" lon="5.622344">
        <time>1970-01-01T00:00:00+00:00</time>
        <ele>824.0</ele>
      </trkpt>
      <trkpt lat="46.150041" lon="5.622608">
        <time>1970-01-01T00:00:00+00:00</time>
        <ele>825.0</ele>
      </trkpt>
      <trkpt lat="46.150128" lon="5.622978">
        <time>1970-01-01T00:00:00+00:00</time>
        <ele>826.0</ele>
      </trkpt>
      <trkpt lat="46.15008" lon="5.623103">
        <time>1970-01-01T00:00:00+00:00</time>
        <ele>829.0</ele>
      </trkpt>
      <trkpt lat="46.150019" lon="5.623122">
        <time>1970-01-01T00:00:00+00:00</time>
        <ele>832.0</ele>
      </trkpt>
      <trkpt lat="46.149309" lon="5.622667">
        <time>1970-01-01T00:00:00+00:00</time>
        <ele>842.0</ele>
      </trkpt>
      <trkpt lat="46.148975" lon="5.622694">
        <time>1970-01-01T00:00:00+00:00</time>
        <ele>847.0</ele>
      </trkpt>
      <trkpt lat="46.148636" lon="5.622656">
        <time>1970-01-01T00:00:00+00:00</time>
        <ele>853.0</ele>
      </trkpt>
      <trkpt lat="46.148493" lon="5.622664">
        <time>1970-01-01T00:00:00+00:00</time>
        <ele>853.0</ele>
      </trkpt>
      <trkpt lat="46.148332" lon="5.622826">
        <time>1970-01-01T00:00:00+00:00</time>
        <ele>855.0</ele>
      </trkpt>
      <trkpt lat="46.148315" lon="5.622897">
        <time>1970-01-01T00:00:00+00:00</time>
        <ele>857.0</ele>
      </trkpt>
      <trkpt lat="46.148354" lon="5.622919">
        <time>1970-01-01T00:00:00+00:00</time>
        <ele>858.0</ele>
      </trkpt>
      <trkpt lat="46.148488" lon="5.622908">
        <time>1970-01-01T00:00:00+00:00</time>
        <ele>859.0</ele>
      </trkpt>
      <trkpt lat="46.148595" lon="5.623053">
        <time>1970-01-01T00:00:00+00:00</time>
        <ele>862.0</ele>
      </trkpt>
      <trkpt lat="46.148655" lon="5.623227">
        <time>1970-01-01T00:00:00+00:00</time>
        <ele>863.0</ele>
      </trkpt>
      <trkpt lat="46.148632" lon="5.623327">
        <time>1970-01-01T00:00:00+00:00</time>
        <ele>865.0</ele>
      </trkpt>
      <trkpt lat="46.148222" lon="5.623764">
        <time>1970-01-01T00:00:00+00:00</time>
        <ele>878.0</ele>
      </trkpt>
      <trkpt lat="46.147811" lon="5.624407">
        <time>1970-01-01T00:00:00+00:00</time>
        <ele>890.0</ele>
      </trkpt>
      <trkpt lat="46.147815" lon="5.624528">
        <time>1970-01-01T00:00:00+00:00</time>
        <ele>891.0</ele>
      </trkpt>
      <trkpt lat="46.147861" lon="5.624651">
        <time>1970-01-01T00:00:00+00:00</time>
        <ele>894.0</ele>
      </trkpt>
      <trkpt lat="46.147919" lon="5.624925">
        <time>1970-01-01T00:00:00+00:00</time>
        <ele>897.0</ele>
      </trkpt>
      <trkpt lat="46.148016" lon="5.624981">
        <time>1970-01-01T00:00:00+00:00</time>
        <ele>901.0</ele>
      </trkpt>
      <trkpt lat="46.148023" lon="5.625086">
        <time>1970-01-01T00:00:00+00:00</time>
        <ele>899.0</ele>
      </trkpt>
      <trkpt lat="46.147995" lon="5.625182">
        <time>1970-01-01T00:00:00+00:00</time>
        <ele>896.0</ele>
      </trkpt>
      <trkpt lat="46.14795" lon="5.62523">
        <time>1970-01-01T00:00:00+00:00</time>
        <ele>891.0</ele>
      </trkpt>
      <trkpt lat="46.14795" lon="5.62523">
        <time>1970-01-01T00:00:00+00:00</time>
        <ele>891.0</ele>
      </trkpt>
      <trkpt lat="46.147995" lon="5.625182">
        <time>1970-01-01T00:00:00+00:00</time>
        <ele>896.0</ele>
      </trkpt>
      <trkpt lat="46.148023" lon="5.625086">
        <time>1970-01-01T00:00:00+00:00</time>
        <ele>899.0</ele>
      </trkpt>
      <trkpt lat="46.148016" lon="5.624981">
        <time>1970-01-01T00:00:00+00:00</time>
        <ele>901.0</ele>
      </trkpt>
      <trkpt lat="46.147919" lon="5.624925">
        <time>1970-01-01T00:00:00+00:00</time>
        <ele>897.0</ele>
      </trkpt>
      <trkpt lat="46.147861" lon="5.624651">
        <time>1970-01-01T00:00:00+00:00</time>
        <ele>894.0</ele>
      </trkpt>
      <trkpt lat="46.147815" lon="5.624528">
        <time>1970-01-01T00:00:00+00:00</time>
        <ele>891.0</ele>
      </trkpt>
      <trkpt lat="46.147811" lon="5.624407">
        <time>1970-01-01T00:00:00+00:00</time>
        <ele>890.0</ele>
      </trkpt>
      <trkpt lat="46.148222" lon="5.623764">
        <time>1970-01-01T00:00:00+00:00</time>
        <ele>878.0</ele>
      </trkpt>
      <trkpt lat="46.148632" lon="5.623327">
        <time>1970-01-01T00:00:00+00:00</time>
        <ele>865.0</ele>
      </trkpt>
      <trkpt lat="46.148655" lon="5.623227">
        <time>1970-01-01T00:00:00+00:00</time>
        <ele>863.0</ele>
      </trkpt>
      <trkpt lat="46.148595" lon="5.623053">
        <time>1970-01-01T00:00:00+00:00</time>
        <ele>862.0</ele>
      </trkpt>
      <trkpt lat="46.148488" lon="5.622908">
        <time>1970-01-01T00:00:00+00:00</time>
        <ele>859.0</ele>
      </trkpt>
      <trkpt lat="46.148354" lon="5.622919">
        <time>1970-01-01T00:00:00+00:00</time>
        <ele>858.0</ele>
      </trkpt>
      <trkpt lat="46.148315" lon="5.622897">
        <time>1970-01-01T00:00:00+00:00</time>
        <ele>857.0</ele>
      </trkpt>
      <trkpt lat="46.148332" lon="5.622826">
        <time>1970-01-01T00:00:00+00:00</time>
        <ele>855.0</ele>
      </trkpt>
      <trkpt lat="46.148493" lon="5.622664">
        <time>1970-01-01T00:00:00+00:00</time>
        <ele>853.0</ele>
      </trkpt>
      <trkpt lat="46.148636" lon="5.622656">
        <time>1970-01-01T00:00:00+00:00</time>
        <ele>853.0</ele>
      </trkpt>
      <trkpt lat="46.148975" lon="5.622694">
        <time>1970-01-01T00:00:00+00:00</time>
        <ele>847.0</ele>
      </trkpt>
      <trkpt lat="46.149309" lon="5.622667">
        <time>1970-01-01T00:00:00+00:00</time>
        <ele>842.0</ele>
      </trkpt>
      <trkpt lat="46.150019" lon="5.623122">
        <time>1970-01-01T00:00:00+00:00</time>
        <ele>832.0</ele>
      </trkpt>
      <trkpt lat="46.15008" lon="5.623103">
        <time>1970-01-01T00:00:00+00:00</time>
        <ele>829.0</ele>
      </trkpt>
      <trkpt lat="46.150128" lon="5.622978">
        <time>1970-01-01T00:00:00+00:00</time>
        <ele>826.0</ele>
      </trkpt>
      <trkpt lat="46.150041" lon="5.622608">
        <time>1970-01-01T00:00:00+00:00</time>
        <ele>825.0</ele>
      </trkpt>
      <trkpt lat="46.149929" lon="5.622344">
        <time>1970-01-01T00:00:00+00:00</time>
        <ele>824.0</ele>
      </trkpt>
      <trkpt lat="46.149758" lon="5.622116">
        <time>1970-01-01T00:00:00+00:00</time>
        <ele>821.0</ele>
      </trkpt>
      <trkpt lat="46.149361" lon="5.621323">
        <time>1970-01-01T00:00:00+00:00</time>
        <ele>814.0</ele>
      </trkpt>
      <trkpt lat="46.149201" lon="5.621175">
        <time>1970-01-01T00:00:00+00:00</time>
        <ele>811.0</ele>
      </trkpt>
      <trkpt lat="46.149081" lon="5.621129">
        <time>1970-01-01T00:00:00+00:00</time>
        <ele>811.0</ele>
      </trkpt>
      <trkpt lat="46.148831" lon="5.620877">
        <time>1970-01-01T00:00:00+00:00</time>
        <ele>807.0</ele>
      </trkpt>
      <trkpt lat="46.148604" lon="5.620718">
        <time>1970-01-01T00:00:00+00:00</time>
        <ele>803.0</ele>
      </trkpt>
      <trkpt lat="46.148612" lon="5.620639">
        <time>1970-01-01T00:00:00+00:00</time>
        <ele>801.0</ele>
      </trkpt>
      <trkpt lat="46.148729" lon="5.620569">
        <time>1970-01-01T00:00:00+00:00</time>
        <ele>799.0</ele>
      </trkpt>
      <trkpt lat="46.149127" lon="5.620623">
        <time>1970-01-01T00:00:00+00:00</time>
        <ele>795.0</ele>
      </trkpt>
      <trkpt lat="46.149262" lon="5.620601">
        <time>1970-01-01T00:00:00+00:00</time>
        <ele>793.0</ele>
      </trkpt>
      <trkpt lat="46.149536" lon="5.620446">
        <time>1970-01-01T00:00:00+00:00</time>
        <ele>787.0</ele>
      </trkpt>
      <trkpt lat="46.149671" lon="5.620515">
        <time>1970-01-01T00:00:00+00:00</time>
        <ele>787.0</ele>
      </trkpt>
      <trkpt lat="46.150384" lon="5.621154">
        <time>1970-01-01T00:00:00+00:00</time>
        <ele>780.0</ele>
      </trkpt>
      <trkpt lat="46.150541" lon="5.621234">
        <time>1970-01-01T00:00:00+00:00</time>
        <ele>778.0</ele>
      </trkpt>
      <trkpt lat="46.150715" lon="5.62124">
        <time>1970-01-01T00:00:00+00:00</time>
        <ele>775.0</ele>
      </trkpt>
      <trkpt lat="46.150835" lon="5.621315">
        <time>1970-01-01T00:00:00+00:00</time>
        <ele>774.0</ele>
      </trkpt>
      <trkpt lat="46.151423" lon="5.621825">
        <time>1970-01-01T00:00:00+00:00</time>
        <ele>766.0</ele>
      </trkpt>
      <trkpt lat="46.151775" lon="5.622192">
        <time>1970-01-01T00:00:00+00:00</time>
        <ele>760.0</ele>
      </trkpt>
      <trkpt lat="46.151899" lon="5.62227">
        <time>1970-01-01T00:00:00+00:00</time>
        <ele>759.0</ele>
      </trkpt>
      <trkpt lat="46.152391" lon="5.622434">
        <time>1970-01-01T00:00:00+00:00</time>
        <ele>754.0</ele>
      </trkpt>
      <trkpt lat="46.152502" lon="5.622562">
        <time>1970-01-01T00:00:00+00:00</time>
        <ele>754.0</ele>
      </trkpt>
      <trkpt lat="46.152691" lon="5.622418">
        <time>1970-01-01T00:00:00+00:00</time>
        <ele>748.0</ele>
      </trkpt>
      <trkpt lat="46.152762" lon="5.621999">
        <time>1970-01-01T00:00:00+00:00</time>
        <ele>736.0</ele>
      </trkpt>
      <trkpt lat="46.152975" lon="5.621581">
        <time>1970-01-01T00:00:00+00:00</time>
        <ele>730.0</ele>
      </trkpt>
      <trkpt lat="46.153361" lon="5.620887">
        <time>1970-01-01T00:00:00+00:00</time>
        <ele>720.0</ele>
      </trkpt>
      <trkpt lat="46.153191" lon="5.620211">
        <time>1970-01-01T00:00:00+00:00</time>
        <ele>702.0</ele>
      </trkpt>
      <trkpt lat="46.153139" lon="5.619401">
        <time>1970-01-01T00:00:00+00:00</time>
        <ele>685.0</ele>
      </trkpt>
      <trkpt lat="46.153416" lon="5.619518">
        <time>1970-01-01T00:00:00+00:00</time>
        <ele>690.0</ele>
      </trkpt>
      <trkpt lat="46.15359" lon="5.619367">
        <time>1970-01-01T00:00:00+00:00</time>
        <ele>683.0</ele>
      </trkpt>
      <trkpt lat="46.154081" lon="5.619031">
        <time>1970-01-01T00:00:00+00:00</time>
        <ele>685.0</ele>
      </trkpt>
      <trkpt lat="46.154016" lon="5.61853">
        <time>1970-01-01T00:00:00+00:00</time>
        <ele>682.0</ele>
      </trkpt>
      <trkpt lat="46.153854" lon="5.617637">
        <time>1970-01-01T00:00:00+00:00</time>
        <ele>657.0</ele>
      </trkpt>
      <trkpt lat="46.153985" lon="5.616974">
        <time>1970-01-01T00:00:00+00:00</time>
        <ele>641.0</ele>
      </trkpt>
      <trkpt lat="46.153776" lon="5.617149">
        <time>1970-01-01T00:00:00+00:00</time>
        <ele>643.0</ele>
      </trkpt>
      <trkpt lat="46.153667" lon="5.617069">
        <time>1970-01-01T00:00:00+00:00</time>
        <ele>643.0</ele>
      </trkpt>
      <trkpt lat="46.153491" lon="5.616683">
        <time>1970-01-01T00:00:00+00:00</time>
        <ele>633.0</ele>
      </trkpt>
      <trkpt lat="46.15335" lon="5.616496">
        <time>1970-01-01T00:00:00+00:00</time>
        <ele>629.0</ele>
      </trkpt>
      <trkpt lat="46.153215" lon="5.616439">
        <time>1970-01-01T00:00:00+00:00</time>
        <ele>627.0</ele>
      </trkpt>
      <trkpt lat="46.153018" lon="5.616244">
        <time>1970-01-01T00:00:00+00:00</time>
        <ele>622.0</ele>
      </trkpt>
      <trkpt lat="46.152703" lon="5.615746">
        <time>1970-01-01T00:00:00+00:00</time>
        <ele>620.0</ele>
      </trkpt>
      <trkpt lat="46.152544" lon="5.615428">
        <time>1970-01-01T00:00:00+00:00</time>
        <ele>616.0</ele>
      </trkpt>
      <trkpt lat="46.152385" lon="5.614596">
        <time>1970-01-01T00:00:00+00:00</time>
        <ele>615.0</ele>
      </trkpt>
      <trkpt lat="46.152371" lon="5.614086">
        <time>1970-01-01T00:00:00+00:00</time>
        <ele>606.0</ele>
      </trkpt>
      <trkpt lat="46.152326" lon="5.613873">
        <time>1970-01-01T00:00:00+00:00</time>
        <ele>603.0</ele>
      </trkpt>
      <trkpt lat="46.152144" lon="5.613554">
        <time>1970-01-01T00:00:00+00:00</time>
        <ele>597.0</ele>
      </trkpt>
      <trkpt lat="46.152331" lon="5.613518">
        <time>1970-01-01T00:00:00+00:00</time>
        <ele>596.0</ele>
      </trkpt>
    </trkseg>
  </trk>
</gpx>
